Regional Weather Roundup
Issued by NWS

Home | Current Version | Previous Version | Graphics & Text | Print | Product List | Glossary On
Versions: 1 2 3 4 5 6 7 8 9 10 11 12 13 14 15 16 17 18 19 20 21 22 23 24 25 26 27 28 29 30 31 32 33 34 35 36 37 38 39 40 41 42 43 44 45 46 47 48 49 50
337
ASUS43 KOAX 091202
RWRNE

WEATHER ROUNDUP FOR NEBRASKA
NATIONAL WEATHER SERVICE OMAHA NE
600 AM CST FRI DEC 09 2016

NOTES: SATELLITE DATA IS BEING USED TO AUGMENT CLOUD COVER ABOVE
       12000 FEET.
       "FAIR" INDICATES FEW OR NO CLOUDS BELOW 12,000 FEET WITH NO
       SIGNIFICANT WEATHER AND/OR OBSTRUCTIONS TO VISIBILITY.

  * THESE STATIONS DO NOT REPORT WEATHER SUCH AS RAIN...SNOW OR FOG.

NEZ001>004-019>022-054>056-091300-
NEBRASKA PANHANDLE

CITY           SKY/WX    TMP DP  RH WIND       PRES   REMARKS
SCOTTSBLUFF    CLOUDY    16   7  67 SE13      30.11F WCI   2
6HR MIN TEMP:   6; 6HR MAX TEMP:  16; 6HR PCP: TRACE;

ALLIANCE       CLOUDY    12   5  73 S14G24    30.13F WCI  -3
6HR MIN TEMP:   1; 6HR MAX TEMP:  13;

CHADRON        CLOUDY     6   0  76 N8        30.21S WCI  -7
6HR MIN TEMP:   1; 6HR MAX TEMP:  11; 6HR PCP: TRACE;

KIMBALL        CLOUDY    14   9  79 S9        30.07F WCI   2
SIDNEY         CLOUDY    13   6  74 S16       30.13F WCI  -3
6HR MIN TEMP:   8; 6HR MAX TEMP:  13;

$$

NEZ057>060-069>072-079>082-091300-
SOUTHWEST NEBRASKA

CITY           SKY/WX    TMP DP  RH WIND       PRES   REMARKS
NORTH PLATTE   CLOUDY     7   2  80 SE7       30.36F WCI  -5
6HR MIN TEMP:   2; 6HR MAX TEMP:   7;

IMPERIAL       CLOUDY    12   4  70 SE12      30.29F WCI  -2
6HR MIN TEMP:   7; 6HR MAX TEMP:  12;

LEXINGTON      CLOUDY     8   4  83 E3        30.44S
MCCOOK         CLOUDY     9   3  77 E5        30.38F WCI   1
6HR MIN TEMP:  -1; 6HR MAX TEMP:   9;

OGALLALA       CLOUDY    14   7  73 S12       30.28F WCI   0
$$

NEZ005>010-023>029-035>040-094-091300-
NORTH CENTRAL NEBRASKA

CITY           SKY/WX    TMP DP  RH WIND       PRES   REMARKS
VALENTINE      CLOUDY     3  -2  79 E6        30.39F WCI  -8
6HR MIN TEMP:  -7; 6HR MAX TEMP:   3;

AINSWORTH      MOCLDY     5   2  84 SE7       30.40F WCI  -7
BROKEN BOW     CLOUDY     7   1  76 SE10      30.40F WCI  -8
6HR MIN TEMP:  -3; 6HR MAX TEMP:   7;

O`NEILL        CLOUDY     5   1  85 CALM      30.49F
ORD            CLOUDY     4  -1  80 CALM      30.47F
6HR MIN TEMP:  -4; 6HR MAX TEMP:   4;

THEDFORD       CLOUDY     9   2  73 SE8       30.35S WCI  -3
$$

NEZ041-046>049-061>064-073>077-083>087-091300-
SOUTH CENTRAL NEBRASKA

CITY           SKY/WX    TMP DP  RH WIND       PRES   REMARKS
GRAND ISLAND   CLOUDY     6   2  83 E5        30.52F WCI  -3
6HR MIN TEMP:   2; 6HR MAX TEMP:   6;

AURORA         CLOUDY     4  -1  80 E6        30.53S WCI  -7
HASTINGS       CLOUDY    11   4  73 SE7       30.51F WCI   0
6HR MIN TEMP:   3; 6HR MAX TEMP:  11;

HEBRON         CLOUDY     7   3  86 CALM      30.58F
HOLDREGE       CLOUDY    11   5  75 SE6       30.44F WCI   2
KEARNEY *      CLOUDY     9   1  72 E5        30.47F WCI   0
YORK           CLOUDY     5   1  85 CALM      30.56S
$$

NEZ011>018-030>034-042>045-091300-
NORTHEAST NEBRASKA

CITY           SKY/WX    TMP DP  RH WIND       PRES   REMARKS
NORFOLK        CLOUDY     2  -2  83 CALM      30.55F
6HR MIN TEMP:   0; 6HR MAX TEMP:   6;

ALBION         PTCLDY     4  -1  81 CALM      30.53F
BLAIR          CLEAR      6   2  85 CALM      30.58S
FREMONT        CLOUDY     5   1  85 NW3       30.60F
TEKAMAH        CLOUDY     4  -1  80 W6        30.62F WCI  -7
6HR MIN TEMP:   3; 6HR MAX TEMP:  11;

WAYNE          CLOUDY     0  -4  85 CALM      30.57S
$$

NEZ050>053-065>068-078-088>093-091300-
SOUTHEAST NEBRASKA

CITY           SKY/WX    TMP DP  RH WIND       PRES   REMARKS
LINCOLN        CLOUDY     4   0  83 CALM      30.63S
6HR MIN TEMP:   3; 6HR MAX TEMP:  10;

OMAHA EPPLEY   CLEAR      7   1  76 N3        30.63S
6HR MIN TEMP:   7; 6HR MAX TEMP:  12;

BEATRICE       CLOUDY     5   1  84 CALM      30.60S
FALLS CITY     CLEAR      7   4  87 CALM      30.63F
6HR MIN TEMP:   7; 6HR MAX TEMP:  12;

NEBRASKA CITY  CLEAR      8   2  76 CALM      30.61F
PLATTSMOUTH    CLEAR      6   0  77 CALM      30.61S
$$

NEZ044-045-051>053-067-091300-
OMAHA AREA

CITY           SKY/WX    TMP DP  RH WIND       PRES   REMARKS
OMAHA EPPLEY   CLEAR      7   1  76 N3        30.63S
6HR MIN TEMP:   7; 6HR MAX TEMP:  12;

BLAIR          CLEAR      6   2  85 CALM      30.58S
FREMONT        CLOUDY     5   1  85 NW3       30.60F
MILLARD        CLEAR     10   5  80 CALM      30.63R
OFFUTT AFB     CLEAR      8   5  85 W5        30.62S WCI   0
PLATTSMOUTH    CLEAR      6   0  77 CALM      30.61S
WAHOO          FAIR       6   2  83 NW3       30.61S
$$




USA.gov is the U.S. government's official web portal to all federal, state and local government web resources and services.